Current weather by "City, St" or "zip code"  
 
Advertise Here

Current Conditions: Grant County Airport, NM

Fair


39.0 F

Last Updated on Jan 17 2021, 7:55 pm MST
Humidity: 16%
Wind Speed: N 12.7 mph
Barometer 30.10 in
Dewpoint: -2.7 F
Visibility: 10.00 mi
Precip: --
Heat Index: NA
Wind Chill: 31 F
Current conditions at:

Grant County Airport, NM (KSVC)

Lat: 32.63099 Lon: 108.14658

Local Radar Image active severe weather and emergency alerts image image weather storm and storm spotter reports image weather observation monitoring service image
Local
Radar
Active
Alerts
Storm Reports Obs
Monitoring

Sign-up For Email & Text Message Weather Alert Notification Services


Advertise Here

Observation History for Grant County Airport, NM


Time Wind
(mph)
Vis
(mi)
Weather Precip (in) Temperature (F) Relative
Humidity
Wind
Chill
(F)
Heat
Index
(F)
Pressure
Air Dwpt altimeter
(in)
sea level
(mb)
Rmks
7:55 pm MST N 12.7 10.00 Fair -- 39.0 -2.7 16% 31 NA 30.10 M
6:55 pm MST NW 11.5 10.00 Fair -- 41.0 -2.4 16% 34 NA 30.11 M
5:55 pm MST NW 6.9 10.00 Fair -- 49.0 -4.4 10% 46 NA 30.11 M
4:55 pm MST W 9.2 10.00 Fair -- 61.0 -4.0 7% 60 NA 30.10 M
3:55 pm MST NW 13.8 10.00 Fair -- 63.0 -6.2 6% 61 NA 30.10 M
2:55 pm MST W 16.1 10.00 Fair -- 65.0 -5.1 6% NA NA 30.11 M
1:55 pm MST SW 5.8 10.00 Fair -- 65.0 8.1 11% NA NA 30.12 M
12:55 pm MST W 6.9 10.00 Fair -- 64.0 -1.1 7% NA NA 30.14 M
11:55 am MST SW 10.4 10.00 Fair -- 61.0 4.5 10% 60 NA 30.18 M
10:55 am MST SW 8.1 10.00 Fair -- 57.0 7.0 13% 55 NA 30.22 M
9:55 am MST W 9.2 10.00 Fair -- 51.0 9.1 18% 48 NA 30.24 M
8:55 am MST NW 8.1 10.00 Fair -- 43.0 5.9 21% 38 NA 30.23 M
7:55 am MST NW 12.7 10.00 Fair -- 35.0 8.1 32% 26 NA 30.21 M
6:55 am MST NW 12.7 10.00 Fair -- 32.0 9.0 38% 22 NA 30.22 M
5:55 am MST NW 10.4 10.00 Fair -- 32.0 6.4 33% 24 NA 30.21 M
4:55 am MST NW 8.1 10.00 Fair -- 32.0 6.8 34% 25 NA 30.20 M
3:55 am MST NW 12.7 10.00 Fair -- 30.0 6.8 37% 20 NA 30.21 M
2:55 am MST NW 13.8 10.00 Fair -- 33.0 9.3 37% 23 NA 30.21 M
1:55 am MST N 13.8 10.00 Fair -- 33.0 9.0 36% 23 NA 30.21 M
12:55 am MST NW 10.4 10.00 Fair -- 30.0 7.9 39% 21 NA 30.19 M
11:55 pm MST N 11.5 10.00 Fair -- 38.0 8.4 29% 31 NA 30.19 M
10:55 pm MST N 6.9 10.00 Fair -- 40.0 11.1 30% 35 NA 30.18 M
9:55 pm MST N 8.1 10.00 Fair -- 36.0 8.4 31% 30 NA 30.19 M
8:55 pm MST N 9.2 10.00 Fair -- 46.0 9.9 23% 41 NA 30.18 M

Regional Weather Observation


Lordsburg Municipal Airport, NM (KLSB)

Fair
63.0 F

Deming Municipal Airport, NM (KDMN)

Fair
49.0 F

Truth Or Consequences, Truth Or Consequences Municipal Airport, NM (KTCS)

Fair
48.0 F

Safford, Safford Municipal Airport, AZ (KSAD)

Fair
50.0 F

Spaceport America AWOS, NM (K0A0)

Fair
43.0 F

Las Cruces, Las Cruces International Airport, NM (KLRU)

Fair
51.0 F